User: anonymous   Login
Location: Unspecified
(0.0000°N, 0.0000°E)
Time: 15:06:31
(UTC+00:00)
Language:

DANDE - Orbit

View from above orbital plane
View from above orbital plane
View from above satellite
View from above satellite

Ground track
Ground track

The orbit data is extracted from the following two-line orbital elements,

1 39267U 13055C   19078.56652093 +.00001350 +00000-0 +39542-4 0  9998
2 39267 081.0081 090.6287 0698949 226.4953 127.6084 14.20356922279500
Epoch (UTC): 19 March 2019 13:35:47
Eccentricity: 0.0698949
inclination: 81.0081°
perigee height: 321 km
apogee height: 1327 km
right ascension of ascending node: 90.6287°
argument of perigee: 226.4953°
revolutions per day: 14.20356922
mean anomaly at epoch: 127.6084°
orbit number at epoch: 27950

The dashed part of the orbit path shows where the satellite is in the earth's shadow,  

DLR